Vertical_Velocity
1 -1 -3 -3 3 3 1 3 -6 12 -4 10 -13 -9 -0 -5 1 -7 -4 0 1 1 1 1 0 2 2 -1 -0 0 0 0 0 -0 1 -1 -1 -3 -2 0 -1 -1 -0 -1
1 0 1 -0 0 -7 4 -2 -1 3 2 -12 -3 0 -1 -10 2 2 1 0 -0 0 -0 -1 0 -1 0 0 1 1 1 1 0 -1 0 -1 -2 -1 0 -0 -0 0 -2 -1
1 1 -2 1 -1 -0 -2 -2 1 1 -0 -8 -1 9 -3 -1 0 1 -1 -0 -1 -1 -0 -0 -0 -0 -1 -1 -1 -0 -1 -1 -1 -1 -1 -1 -1 -0 0 1 0 -1 -2 -1
3 -4 -1 -2 1 -3 -0 0 0 1 -3 3 -3 3 2 0 0 -1 -1 -0 -1 -1 -1 -1 0 -0 -1 -1 -0 -0 -2 -0 -1 -2 -2 -1 0 0 -1 -1 -2 -0 0 -1
-2 -2 3 1 0 2 -1 -0 2 -1 -2 1 -2 -0 -0 -1 -0 -0 -1 -1 -1 -1 -0 -0 -2 -2 -1 -2 -2 -3 -2 -2 -1 0 1 2 0 -0 -1 -0 1 3 -0 1
-0 -2 -3 -3 3 -2 -2 3 1 -1 0 0 -1 2 -5 0 -2 -2 -1 -1 -0 -0 -1 -1 -2 -2 -2 -2 -1 -0 -0 0 0 0 0 1 0 1 1 1 -0 -1 -0 -2
3 -5 1 -1 5 -4 -1 3 -1 -2 -1 -1 -1 0 0 -1 -1 -0 -0 -1 -0 -0 -1 -1 -1 -1 -1 -1 -1 -0 1 1 1 2 -2 3 -1 1 3 -0 1 -1 -4 -7
-2 -5 1 -5 2 -2 2 -1 -1 -1 1 -0 -0 -1 -2 -1 -1 -1 -0 -1 -0 0 -0 -1 -1 -2 -3 -1 0 -0 1 -0 -0 0 1 -2 -0 2 -0 1 -2 -2 -2 -3
-5 11 -3 -2 -2 1 -0 -1 -0 -1 -2 -1 -1 -2 -1 -0 -1 -0 -1 -1 -0 -1 -1 -1 -1 -1 -2 -1 -0 1 1 0 1 0 -1 -2 -2 -2 -2 -3 -4 -3 -4 -3
-2 9 -3 -5 1 1 2 -2 -1 -1 -1 -1 -1 -1 -1 -0 0 -0 -1 -1 -0 0 -1 -1 -2 -1 -0 -1 -0 1 -0 -1 0 1 -2 -2 1 -5 -4 -4 -1 -3 -3 -4
5 -4 6 -5 -0 -2 3 0 -2 -1 0 -0 -0 -1 -0 -0 -0 -1 -1 -0 0 -0 -2 -2 0 -2 -1 -0 -1 0 0 -0 -0 -2 -0 -2 -7 3 -6 -6 -7 -2 1 -0
12 2 -3 -6 1 -0 3 0 -1 -2 0 -1 1 -0 -0 -0 -1 -0 -0 1 -1 -2 -1 -2 -1 -1 -0 -1 -0 -0 0 -0 -2 -1 -2 -3 -2 -7 3 -0 -0 -7 -5 -3
10 -3 -3 -8 5 -2 2 2 -1 -2 -0 -1 -1 -2 -0 -0 -1 -0 0 1 -2 -2 -1 -2 -1 -0 -1 -0 -0 -1 -1 -3 -2 -2 -3 -3 -4 -2 -2 -11 -5 6 1 -1
-2 -5 4 -4 3 -3 2 2 -0 -1 -1 -1 -1 -1 -0 -0 1 0 1 -1 -2 -1 -2 -2 -2 -2 -1 0 1 -1 -2 0 -2 -3 -3 -4 -4 -4 -4 -3 -1 -5 -4 -1
-6 0 5 -6 1 1 1 1 1 1 0 -1 -1 -1 -1 -0 1 0 0 -0 -2 -2 -2 -1 -3 -2 -2 -1 -1 -1 -3 -2 -1 -3 -3 -3 -3 -3 -4 -4 -3 -1 -2 -3
10 -7 -3 4 -7 5 2 -0 1 1 0 -1 -0 -1 -0 -0 1 -0 1 -1 -2 -2 -3 -2 -2 -1 -1 -1 -0 -2 1 -3 -3 -2 -3 -4 -4 -3 -4 -4 -3 -1 -1 -1
-5 -6 17 5 6 5 -2 -2 1 2 1 0 1 -1 -0 -0 1 1 -0 -1 -1 -1 -3 -2 -1 -2 -2 -1 -1 -2 -1 -2 -3 -3 -3 -3 -4 -4 -4 -3 -2 -2 -1 -0
2 7 -6 -16 -11 -10 1 3 4 0 2 2 -1 -1 0 0 1 1 -0 -1 -0 -1 -0 -0 -1 -1 -3 -1 -2 -2 -2 -2 -3 -4 -3 -3 -4 -5 -3 -3 -2 -2 -2 -2
-3 2 -2 -1 3 3 2 4 -0 -1 2 1 0 -2 1 0 2 1 1 0 -0 -2 -0 -2 -1 1 -2 -1 -2 -2 -2 -2 -3 -4 -2 -2 -3 -3 -2 -3 -2 -3 -1 -1
-3 -6 -8 4 -1 -1 7 0 1 -0 0 1 -0 -2 2 1 1 1 1 -1 0 -0 -1 -1 -1 -1 -1 -3 -2 -2 -0 -1 -3 -2 -2 -3 -4 -3 -2 -2 -1 -3 -1 -2
-1 -2 5 2 -3 3 2 3 1 2 0 0 0 -1 1 1 1 2 1 -1 -0 -1 -1 -2 -1 -2 0 -2 -1 -1 -0 -1 -3 -2 -2 -3 -4 -3 -2 -2 -1 -1 -1 -2
-0 7 2 -1 6 8 3 2 3 2 -2 1 -1 -1 1 1 1 3 0 -2 -1 -1 -1 0 -2 -1 0 -2 -0 -1 -1 -1 -2 -3 -3 -4 -3 -2 -2 -1 -0 -1 -1 -1
9 4 0 1 5 -7 -3 3 -3 -1 0 -0 -1 1 2 -0 3 0 1 -2 1 -1 -1 -1 -1 -1 -2 -1 -0 -1 -1 -1 -2 -3 -3 -4 -3 -2 -2 -1 -1 -1 -0 -1
-8 -7 -3 -6 -2 3 5 4 -1 1 2 1 0 2 -1 4 -0 1 -0 -0 -1 -0 -2 0 -1 -2 -2 -0 -1 -1 -1 -1 -2 -4 -3 -3 -2 -2 -2 -0 -1 -1 -1 -0
-4 -8 -1 5 7 3 2 5 5 7 2 0 0 -1 3 0 1 0 0 1 -1 -2 -0 -1 -2 -2 -0 0 -1 -1 0 -1 -3 -2 -3 -2 -2 -3 -2 -1 -0 -1 -1 0
6 7 10 0 -0 3 7 5 4 2 1 1 2 2 1 2 2 0 1 0 -0 -1 -2 -1 -2 -1 -0 0 -1 -1 -0 -2 -2 -3 -3 -1 -2 -2 -2 -1 -1 -0 -1 -0
17 3 5 4 9 8 6 5 2 -2 1 3 0 1 2 2 1 1 1 -1 -1 -1 0 -2 -1 -0 -0 -0 -0 0 -1 -2 -2 -3 -2 -1 -2 -2 -2 -1 -1 -0 -1 -1
Height
5785 5785 5786 5787 5789 5789 5787 5786 5782 5789 5788 5787 5779 5781 5787 5787 5787 5784 5781 5780 5779 5776 5774 5771 5767 5763 5757 5752 5746 5741 5736 5731 5726 5721 5717 5712 5707 5702 5697 5689 5681 5671 5659 5647
5778 5780 5781 5782 5782 5779 5781 5779 5779 5780 5782 5777 5776 5778 5780 5776 5776 5776 5775 5774 5772 5770 5767 5764 5759 5754 5749 5744 5738 5733 5728 5723 5719 5714 5710 5705 5700 5695 5688 5680 5669 5657 5644 5630
5773 5775 5774 5780 5776 5776 5774 5774 5774 5775 5776 5771 5773 5776 5773 5772 5772 5771 5770 5769 5767 5763 5760 5756 5751 5746 5740 5735 5729 5724 5720 5715 5711 5707 5703 5698 5693 5686 5678 5668 5655 5642 5628 5614
5768 5767 5771 5772 5772 5772 5772 5771 5770 5770 5769 5769 5768 5770 5769 5769 5768 5767 5765 5763 5761 5757 5753 5748 5743 5738 5732 5727 5722 5717 5712 5708 5704 5701 5696 5691 5684 5676 5666 5655 5642 5628 5613 5597
5762 5762 5767 5767 5768 5769 5768 5769 5768 5766 5765 5766 5766 5765 5765 5765 5764 5763 5761 5758 5755 5751 5746 5741 5736 5730 5725 5720 5715 5710 5706 5702 5699 5695 5689 5683 5675 5665 5655 5642 5628 5613 5596 5579
5755 5758 5759 5762 5763 5763 5764 5767 5765 5763 5763 5763 5763 5763 5761 5761 5760 5759 5756 5753 5749 5744 5740 5734 5729 5724 5718 5714 5709 5705 5701 5697 5693 5688 5681 5673 5665 5654 5642 5628 5613 5597 5580 5562
5748 5751 5755 5756 5759 5757 5760 5765 5761 5760 5760 5759 5759 5759 5759 5758 5756 5754 5751 5748 5743 5738 5733 5728 5723 5718 5713 5708 5704 5699 5695 5691 5686 5680 5672 5664 5654 5643 5630 5615 5599 5583 5566 5546
5741 5743 5750 5750 5753 5752 5756 5756 5757 5756 5756 5756 5756 5755 5754 5753 5751 5749 5746 5742 5738 5733 5728 5722 5717 5712 5707 5703 5699 5694 5690 5684 5678 5671 5663 5653 5643 5631 5617 5602 5586 5568 5549 5529
5736 5739 5743 5744 5746 5747 5748 5751 5752 5752 5752 5752 5751 5751 5750 5748 5746 5743 5740 5737 5733 5728 5722 5717 5711 5706 5701 5697 5693 5688 5683 5677 5670 5662 5653 5643 5631 5619 5605 5589 5572 5554 5534 5514
5727 5732 5735 5738 5741 5743 5743 5746 5747 5748 5748 5747 5747 5746 5745 5744 5741 5738 5735 5732 5727 5722 5717 5711 5705 5700 5696 5691 5686 5681 5675 5669 5662 5653 5643 5632 5620 5606 5592 5576 5559 5540 5519 5498
5719 5724 5727 5734 5735 5734 5738 5741 5742 5742 5743 5743 5742 5742 5740 5739 5736 5733 5730 5726 5721 5716 5711 5706 5700 5694 5689 5684 5679 5674 5668 5661 5653 5644 5634 5622 5609 5596 5579 5563 5546 5528 5508 5488
5712 5717 5721 5724 5726 5728 5732 5735 5737 5737 5737 5738 5738 5737 5735 5733 5731 5728 5724 5720 5715 5710 5705 5700 5693 5688 5683 5678 5672 5666 5660 5653 5644 5634 5624 5612 5598 5584 5570 5551 5532 5511 5492 5474
5704 5709 5710 5715 5722 5721 5726 5729 5730 5732 5732 5732 5733 5732 5730 5728 5725 5722 5718 5714 5709 5704 5699 5693 5688 5682 5677 5671 5665 5659 5652 5644 5635 5625 5614 5601 5588 5573 5557 5540 5524 5505 5484 5467
5696 5701 5702 5711 5714 5716 5719 5723 5724 5725 5726 5726 5727 5726 5725 5722 5719 5715 5711 5708 5702 5697 5692 5687 5681 5675 5670 5665 5658 5651 5644 5635 5625 5615 5603 5590 5577 5562 5546 5529 5511 5492 5474 5461
5687 5692 5696 5701 5706 5709 5713 5715 5718 5719 5719 5720 5720 5720 5718 5716 5712 5709 5705 5701 5696 5691 5686 5680 5674 5669 5663 5657 5651 5643 5635 5626 5616 5606 5593 5580 5566 5551 5535 5518 5500 5481 5465 5453
5679 5685 5688 5695 5697 5701 5706 5708 5710 5712 5713 5713 5714 5713 5711 5709 5705 5702 5698 5694 5690 5684 5678 5672 5666 5661 5655 5649 5642 5635 5626 5617 5607 5596 5583 5570 5556 5540 5525 5508 5490 5473 5459 5448
5669 5677 5679 5686 5688 5695 5698 5698 5702 5705 5705 5706 5707 5706 5704 5702 5699 5695 5691 5687 5682 5677 5671 5665 5659 5653 5647 5641 5634 5626 5618 5609 5598 5586 5574 5560 5545 5530 5514 5498 5481 5465 5453 5443
5659 5666 5668 5675 5679 5683 5687 5691 5696 5697 5698 5699 5699 5699 5697 5695 5691 5687 5684 5680 5675 5670 5664 5657 5651 5646 5640 5633 5626 5617 5609 5599 5588 5577 5564 5550 5535 5520 5505 5489 5473 5457 5446 5438
5651 5656 5661 5667 5671 5678 5682 5685 5687 5689 5691 5691 5692 5692 5690 5687 5684 5680 5677 5672 5668 5663 5656 5650 5644 5638 5631 5625 5617 5608 5599 5590 5578 5567 5554 5541 5526 5511 5497 5481 5465 5450 5441 5433
5641 5648 5653 5658 5663 5668 5674 5677 5679 5681 5683 5683 5684 5684 5682 5679 5676 5673 5669 5665 5660 5655 5648 5642 5636 5630 5623 5616 5608 5600 5590 5580 5569 5558 5545 5531 5517 5503 5488 5473 5457 5444 5435 5428
5631 5639 5647 5650 5654 5660 5665 5668 5671 5673 5675 5675 5676 5675 5674 5671 5668 5665 5661 5657 5652 5646 5640 5634 5629 5622 5615 5607 5599 5591 5581 5571 5560 5548 5536 5522 5509 5495 5480 5465 5451 5438 5429 5422
5621 5631 5639 5641 5645 5651 5657 5660 5663 5665 5665 5667 5667 5667 5665 5663 5660 5656 5653 5648 5643 5637 5632 5626 5620 5614 5607 5599 5591 5582 5572 5561 5551 5539 5527 5514 5500 5486 5472 5457 5443 5432 5424 5417
5615 5622 5629 5632 5637 5642 5647 5651 5653 5655 5657 5658 5658 5658 5656 5655 5651 5648 5645 5639 5634 5629 5623 5618 5612 5605 5598 5590 5582 5573 5563 5552 5541 5530 5518 5505 5491 5478 5464 5449 5436 5425 5418 5412
5607 5613 5618 5623 5629 5634 5638 5641 5644 5647 5648 5649 5649 5649 5648 5645 5643 5640 5635 5630 5625 5620 5615 5610 5604 5597 5590 5582 5573 5564 5554 5543 5532 5521 5509 5496 5483 5469 5455 5441 5428 5419 5412 5406
5599 5604 5609 5614 5621 5625 5629 5632 5635 5638 5639 5640 5641 5640 5638 5637 5634 5630 5626 5621 5616 5611 5607 5601 5595 5587 5580 5572 5563 5554 5544 5533 5523 5512 5500 5487 5474 5460 5446 5432 5421 5412 5406 5401
5589 5595 5601 5608 5613 5617 5620 5624 5627 5630 5631 5632 5632 5631 5630 5628 5625 5621 5616 5611 5607 5602 5597 5591 5585 5578 5570 5562 5553 5545 5535 5524 5513 5502 5490 5478 5464 5451 5437 5424 5413 5405 5399 5394
5580 5588 5596 5601 5605 5610 5614 5617 5620 5622 5623 5624 5623 5623 5621 5619 5616 5611 5607 5603 5598 5594 5589 5582 5575 5568 5560 5552 5544 5535 5525 5515 5504 5493 5481 5468 5455 5441 5427 5415 5405 5397 5392 5388